Vorticity
9 9 10 11 12 12 11 11 10 9 9 9 8 6 4 3 3 3 3 3 3 3 1 6 18 14 6 7 19 11 13 7 4 4 7 7 7 3 4 5 4 4 4
10 9 7 8 9 10 11 11 13 13 12 11 9 8 7 5 4 4 3 4 4 3 3 4 5 15 13 5 8 7 5 6 7 -2 -3 2 8 10 5 4 0 1 3
11 10 11 11 10 9 10 10 10 10 11 11 11 11 10 10 8 6 5 4 3 5 6 5 4 4 8 12 7 11 8 1 1 10 6 -6 -1 9 6 9 3 7 5
17 14 10 8 9 10 10 9 9 9 9 9 9 11 11 10 9 9 7 6 7 5 4 5 6 6 3 6 18 14 -1 5 9 -11 31 -1 6 1 9 5 6 2 5
7 9 8 8 6 6 7 7 7 7 7 8 9 9 9 9 9 11 12 12 12 12 12 8 5 5 6 4 1 26 -3 21 -4 5 -11 3 5 -11 -6 3 7 4 2
2 10 7 5 3 -0 1 6 7 8 8 10 9 7 7 7 10 11 10 9 7 10 11 13 16 14 10 9 12 5 12 6 7 2 10 4 -7 24 15 2 -25 8 4
7 5 13 6 5 4 2 2 4 1 4 8 5 3 3 4 9 5 7 8 3 11 10 9 10 9 14 15 8 14 16 9 8 7 9 27 10 -12 -10 9 28 -6 18
7 6 8 8 7 5 5 5 9 9 5 2 2 6 9 8 3 7 9 8 9 7 10 10 4 8 11 14 15 11 10 17 19 14 3 9 14 15 10 7 -4 -8 27
7 7 7 6 7 6 7 8 10 11 9 7 2 4 5 6 11 0 4 1 -0 -4 4 15 11 8 5 10 16 14 10 8 10 20 16 10 10 7 11 14 11 4 11
6 10 11 12 10 9 7 7 8 9 12 9 5 4 -0 5 -3 2 10 8 1 22 3 5 4 6 7 6 10 16 15 11 8 8 15 18 16 11 11 -0 19 11 -11
15 10 1 4 13 13 15 15 12 8 7 11 10 10 3 11 6 -12 -0 11 2 8 2 -3 6 -1 3 6 -0 9 11 11 12 11 7 10 18 18 10 19 8 -5 22
2 6 7 13 10 7 9 11 15 17 22 23 16 19 7 4 8 1 -11 16 1 -5 -0 -6 6 6 7 4 0 3 9 7 11 12 13 9 8 15 17 11 16 12 18
7 11 8 11 11 16 22 24 25 24 26 27 26 24 22 16 -14 31 -7 17 2 -1 -1 7 3 8 9 -3 6 6 10 8 10 11 13 14 10 8 12 17 15 15 8
11 12 14 14 17 22 24 22 21 17 15 9 4 12 44 9 48 34 33 29 22 23 25 19 22 12 7 3 7 10 13 11 8 11 9 12 12 10 8 5 12 11 15
8 13 16 23 26 17 12 11 3 7 5 16 5 24 28 2 5 -23 -5 17 19 16 10 14 9 9 6 11 12 9 12 14 13 9 9 9 10 13 9 7 8 13 12
19 23 23 21 19 21 7 16 9 9 3 3 20 20 23 21 17 31 22 8 7 10 14 12 12 15 13 12 13 12 8 9 12 11 10 10 9 11 13 9 9 10 13
29 20 16 5 8 9 27 1 13 29 8 10 11 10 9 11 10 10 11 11 11 10 9 9 9 10 10 12 12 13 13 8 12 11 12 11 12 4 14 13 9 14 11
18 12 8 12 -3 7 10 9 8 14 14 12 14 13 6 4 7 10 10 9 10 11 10 11 10 10 12 14 15 16 16 14 12 13 13 12 12 18 -2 2 8 6 11
14 12 7 10 8 9 4 11 2 3 11 8 8 9 11 11 12 12 12 11 10 9 9 9 10 10 10 11 12 12 10 11 13 14 14 13 12 11 20 -5 2 6 9
10 9 7 8 9 8 7 8 6 7 7 9 12 12 12 12 11 11 11 11 11 10 10 9 8 8 8 7 9 10 12 13 15 16 15 12 16 14 13 15 14 0 0
4 4 5 7 8 11 15 15 12 10 11 13 12 11 11 12 13 11 10 11 10 10 10 9 10 12 13 12 12 13 13 14 12 10 13 13 17 17 16 15 13 14 18
11 22 23 19 14 11 11 13 14 12 10 9 9 11 11 12 12 11 11 12 11 11 13 17 19 19 19 20 21 22 21 19 16 13 12 13 11 15 16 18 15 14 13
14 15 11 8 9 11 11 11 9 9 9 11 11 12 13 14 13 13 13 12 16 16 13 13 13 14 15 14 13 14 15 18 19 23 21 19 15 13 13 12 18 15 12
5 4 7 11 13 14 12 12 12 12 13 13 13 14 13 13 14 13 16 16 16 16 15 15 14 14 14 13 13 13 11 9 11 14 18 17 19 21 19 16 15 12 13
6 11 16 14 13 14 14 12 11 12 12 11 12 13 13 15 17 14 15 12 11 14 17 18 18 13 12 17 21 19 16 12 12 12 15 13 13 16 18 18 17 14 12
15 17 13 14 15 13 12 12 11 10 10 12 13 16 17 18 14 13 10 9 9 12 13 15 13 12 14 12 14 19 21 17 16 15 19 14 14 15 15 16 17 18 16
Height
3149 3147 3144 3141 3139 3136 3134 3132 3130 3129 3129 3128 3126 3125 3124 3123 3121 3120 3119 3118 3118 3118 3119 3120 3120 3121 3124 3125 3126 3129 3132 3135 3138 3140 3143 3145 3148 3150 3152 3154 3156 3159 3161
3144 3141 3138 3135 3133 3130 3128 3126 3124 3123 3122 3121 3121 3119 3118 3117 3115 3113 3111 3111 3110 3110 3111 3112 3113 3114 3114 3116 3118 3121 3123 3126 3129 3132 3135 3138 3140 3143 3145 3148 3150 3152 3156
3138 3135 3132 3130 3127 3125 3123 3121 3119 3117 3115 3114 3114 3113 3112 3111 3110 3107 3105 3104 3103 3102 3102 3104 3106 3106 3107 3108 3110 3113 3115 3117 3120 3122 3126 3130 3133 3135 3138 3141 3144 3147 3148
3134 3130 3126 3124 3121 3119 3118 3116 3113 3112 3110 3108 3106 3105 3104 3103 3102 3101 3100 3098 3095 3095 3095 3095 3097 3099 3099 3101 3104 3104 3106 3109 3111 3113 3117 3119 3124 3127 3130 3132 3136 3139 3142
3128 3125 3122 3120 3117 3114 3112 3110 3109 3106 3104 3102 3100 3098 3096 3095 3093 3092 3091 3090 3088 3087 3087 3086 3087 3089 3091 3093 3094 3096 3096 3099 3101 3103 3105 3107 3112 3116 3121 3124 3127 3131 3134
3123 3119 3117 3114 3111 3108 3106 3104 3102 3100 3098 3096 3093 3092 3091 3088 3086 3084 3083 3082 3081 3079 3078 3077 3078 3078 3079 3081 3084 3086 3088 3089 3091 3093 3095 3099 3099 3104 3109 3114 3118 3119 3123
3117 3112 3108 3106 3104 3100 3099 3097 3093 3090 3087 3087 3083 3083 3081 3080 3078 3077 3075 3073 3074 3073 3072 3069 3067 3068 3069 3070 3070 3074 3076 3079 3079 3083 3085 3087 3091 3092 3094 3099 3106 3109 3101
3111 3105 3101 3097 3094 3090 3087 3086 3084 3080 3078 3077 3074 3072 3067 3068 3068 3069 3066 3064 3063 3064 3063 3063 3060 3058 3057 3059 3061 3060 3062 3064 3066 3069 3071 3076 3079 3082 3085 3088 3091 3094 3098
3102 3097 3093 3087 3083 3079 3075 3073 3072 3069 3066 3064 3065 3062 3057 3052 3056 3057 3056 3054 3054 3054 3053 3052 3052 3051 3049 3047 3047 3049 3051 3052 3053 3056 3059 3061 3066 3069 3072 3076 3079 3084 3088
3092 3088 3082 3077 3072 3068 3063 3060 3057 3055 3053 3051 3046 3049 3044 3042 3041 3043 3044 3043 3043 3043 3044 3043 3042 3040 3040 3038 3036 3036 3038 3041 3043 3044 3046 3048 3051 3055 3059 3062 3066 3071 3075
3081 3077 3072 3066 3060 3055 3050 3045 3041 3038 3036 3035 3032 3029 3030 3027 3027 3029 3028 3030 3031 3030 3031 3032 3031 3031 3030 3029 3027 3026 3025 3027 3030 3033 3035 3036 3038 3041 3044 3048 3055 3059 3063
3070 3065 3058 3051 3044 3039 3033 3028 3023 3019 3017 3015 3014 3012 3014 3013 3011 3010 3014 3014 3015 3017 3017 3019 3019 3019 3020 3019 3018 3017 3015 3015 3017 3020 3024 3026 3024 3026 3030 3033 3039 3045 3050
3056 3049 3042 3035 3027 3021 3015 3011 3007 3002 2999 2998 2997 2996 2999 2998 2997 2997 2997 2997 2999 3001 3002 3005 3007 3007 3008 3007 3008 3007 3006 3005 3004 3007 3010 3014 3015 3015 3018 3024 3027 3031 3036
3043 3035 3028 3020 3013 3007 3002 2997 2997 2993 2990 2988 2987 2986 2986 2984 2983 2983 2985 2985 2985 2986 2988 2992 2995 2995 2994 2994 2995 2995 2995 2995 2994 2995 2998 3000 3003 3004 3006 3011 3016 3019 3022
3027 3020 3013 3005 3001 2997 2994 2990 2987 2984 2983 2981 2979 2978 2976 2974 2973 2972 2972 2973 2973 2973 2974 2976 2979 2983 2983 2981 2980 2982 2982 2982 2983 2984 2986 2988 2990 2991 2993 2996 3003 3008 3012
3012 3005 3000 2996 2992 2988 2985 2981 2977 2975 2974 2972 2970 2968 2966 2964 2963 2962 2962 2961 2959 2958 2956 2963 2961 2963 2966 2967 2967 2968 2969 2969 2969 2971 2974 2976 2979 2980 2981 2984 2986 2993 3000
3000 2994 2990 2988 2985 2981 2976 2973 2969 2967 2966 2964 2962 2959 2957 2955 2953 2952 2952 2950 2950 2948 2945 2948 2946 2946 2949 2950 2951 2952 2954 2956 2957 2956 2959 2962 2967 2970 2970 2972 2976 2978 2984
2988 2985 2983 2979 2977 2974 2970 2965 2963 2960 2957 2955 2953 2951 2949 2948 2946 2944 2942 2941 2939 2937 2935 2933 2935 2934 2933 2936 2937 2937 2938 2940 2943 2945 2946 2949 2951 2956 2958 2960 2964 2966 2970
2982 2977 2974 2972 2968 2965 2962 2958 2954 2951 2948 2946 2944 2942 2940 2937 2935 2933 2932 2930 2928 2926 2924 2922 2921 2923 2921 2922 2923 2924 2923 2924 2927 2931 2933 2934 2937 2940 2943 2947 2951 2955 2959
2975 2970 2966 2962 2959 2956 2952 2948 2944 2941 2938 2936 2934 2931 2928 2926 2923 2921 2920 2918 2917 2915 2914 2911 2909 2910 2909 2909 2909 2909 2910 2911 2913 2916 2918 2920 2922 2924 2927 2931 2937 2942 2947
2969 2963 2958 2954 2950 2946 2941 2937 2934 2930 2927 2925 2923 2920 2917 2914 2912 2909 2906 2906 2904 2902 2901 2898 2896 2896 2896 2894 2894 2896 2894 2897 2898 2901 2902 2905 2908 2909 2912 2916 2921 2926 2933
2960 2954 2949 2943 2939 2935 2931 2926 2923 2919 2917 2913 2910 2909 2906 2903 2900 2897 2895 2892 2891 2889 2887 2884 2883 2882 2882 2881 2880 2880 2880 2881 2884 2886 2887 2891 2894 2896 2899 2902 2907 2913 2918
2951 2945 2940 2935 2930 2925 2920 2916 2912 2908 2905 2902 2899 2895 2892 2890 2887 2884 2882 2880 2878 2875 2872 2871 2869 2869 2869 2870 2869 2868 2868 2869 2870 2873 2873 2876 2879 2882 2886 2890 2894 2899 2904
2944 2938 2932 2927 2921 2916 2910 2906 2901 2898 2895 2892 2888 2885 2880 2878 2876 2872 2870 2868 2866 2863 2861 2858 2857 2857 2858 2858 2857 2857 2857 2857 2859 2861 2863 2864 2867 2870 2874 2878 2882 2886 2891
2937 2930 2924 2917 2911 2906 2901 2896 2892 2889 2885 2882 2878 2874 2870 2867 2865 2862 2859 2856 2854 2853 2851 2849 2848 2847 2847 2846 2846 2846 2846 2848 2849 2852 2854 2853 2856 2859 2863 2866 2870 2874 2878
2928 2921 2915 2908 2902 2897 2892 2887 2882 2878 2875 2871 2869 2865 2862 2858 2856 2853 2849 2846 2843 2843 2841 2839 2839 2838 2838 2838 2837 2836 2837 2837 2839 2841 2846 2845 2847 2851 2853 2856 2860 2863 2867